GFSNGP_con_3kmhel_324.txt.gz
Helicity
226 241 230 211 144 148 186 145 156 169 213 302 415 358 110 74 135 154 162 174 188 184 167 171 171 146 165 185 202 193 200 212 200 175 162 173 157 137 139 130 107 108 119 113
216 249 156 320 322 207 267 244 202 175 207 374 349 368 336 194 88 105 115 150 160 164 182 160 164 169 204 200 198 217 205 198 190 190 174 163 152 148 143 121 116 128 115 113
199 205 246 361 439 244 222 310 287 263 182 202 336 411 422 411 346 167 105 122 136 150 152 162 176 180 208 230 241 214 224 218 222 204 178 156 150 157 144 127 125 123 124 108
251 105 303 211 321 243 317 364 344 301 337 303 282 251 150 290 373 418 349 226 181 151 117 138 186 196 214 258 243 223 223 234 235 225 197 180 165 150 140 136 135 149 129 97
301 161 100 313 348 413 491 426 467 378 367 425 460 193 119 286 313 326 289 196 148 113 127 174 231 267 275 292 287 257 241 246 253 243 241 207 176 167 157 170 154 161 135 102
338 327 196 349 379 278 384 425 508 441 416 468 525 230 363 485 438 408 303 138 111 67 145 156 213 290 302 267 270 247 273 263 275 278 255 214 197 187 178 165 154 166 137 89
325 224 346 360 536 239 418 409 461 416 405 428 372 374 477 523 544 355 277 208 84 62 151 189 271 347 323 286 239 296 305 257 273 266 253 230 236 221 222 202 179 172 132 93
243 223 149 351 244 264 264 189 251 303 359 417 378 372 385 440 431 465 436 279 146 45 166 216 270 297 263 262 300 327 324 274 263 253 257 282 269 254 235 236 201 172 152 111
102 137 103 146 227 207 143 144 84 124 153 235 353 324 331 362 380 409 414 319 267 48 162 191 250 276 270 264 310 357 308 270 266 262 279 292 299 297 288 248 214 183 158 103
120 178 133 157 220 172 148 150 113 69 60 44 127 183 227 243 237 310 399 267 226 127 191 177 188 204 209 304 337 322 280 281 288 306 313 275 279 302 320 270 216 202 177 116
200 230 164 144 183 197 181 144 131 116 63 32 28 55 97 140 115 135 261 286 185 109 139 161 204 161 229 296 330 273 268 291 282 286 297 283 279 305 272 204 237 238 176 152
225 225 159 191 202 196 165 160 111 107 94 56 53 79 78 51 77 79 91 182 212 90 132 167 179 214 253 249 270 302 298 290 298 298 278 275 287 281 267 171 166 183 220 208
41 45 20 11 47 91 162 145 124 102 86 119 93 29 70 89 98 94 79 128 215 185 76 141 161 189 206 190 215 253 257 273 279 281 289 288 268 247 211 222 114 125 156 162
-11 15 -3 2 -25 19 20 65 78 63 74 82 106 120 48 48 144 186 181 203 215 280 213 149 256 211 192 209 210 167 191 239 246 245 247 263 243 211 209 204 173 138 103 120
46 -8 -37 -42 -0 -12 -8 47 82 112 121 119 108 149 152 113 200 226 250 260 260 283 314 283 267 238 151 181 166 173 136 185 207 239 218 229 240 224 218 196 161 171 185 131
-0 -12 -8 7 -0 8 22 53 98 113 129 132 114 162 173 141 171 251 300 354 381 401 350 305 293 266 314 178 135 220 239 218 210 219 217 225 233 223 212 198 204 181 154 123
-28 -2 -48 -79 -70 -13 13 10 61 100 121 134 128 135 171 217 205 276 364 408 392 376 418 425 391 334 274 316 212 274 293 212 212 225 204 201 206 186 174 172 158 176 141 184
-69 -85 -101 -118 -119 -79 -19 -2 1 81 126 153 130 114 93 131 204 245 308 374 452 485 551 516 513 435 380 380 261 252 317 311 208 211 229 218 209 201 202 186 168 156 163 191
-58 -71 -73 -73 -60 -30 -11 8 10 36 112 92 148 113 74 85 63 61 112 222 419 508 541 462 582 599 558 532 404 278 294 290 253 257 250 235 237 213 218 211 186 158 182 220
-29 -41 -60 -59 -50 -34 -32 -34 -10 -14 -17 -13 21 36 57 119 87 47 28 95 129 283 421 457 333 412 512 571 437 512 389 248 212 204 206 199 195 190 187 188 200 194 194 199
-28 -28 -30 -41 -32 -19 -33 -41 -37 -27 -22 -1 -8 -21 -7 10 32 71 70 65 100 138 69 248 340 306 306 438 495 539 493 338 144 155 163 150 143 150 159 174 190 199 203 207
45 15 -8 -18 -20 -14 2 -2 -7 -4 4 -7 -23 -44 -50 -42 -34 -45 -33 8 29 58 68 17 61 118 139 159 142 250 343 269 253 247 196 186 167 138 126 119 123 138 164 184
47 57 33 -11 -4 13 35 47 42 24 7 -9 -26 -31 -41 -40 -37 -39 -45 -34 -31 -17 -17 -7 21 61 73 29 38 96 94 141 115 168 247 174 108 133 157 151 113 76 74 91
44 57 61 57 77 80 55 37 30 19 -9 -35 -49 -62 -66 -59 -52 -55 -36 -27 -21 -14 -24 -19 -13 -6 -12 -1 48 77 84 77 95 102 129 159 142 119 99 90 102 84 70 72
-16 22 88 97 106 83 76 58 45 18 -10 -41 -54 -58 -49 -55 -76 -44 -35 -25 -14 -11 -6 -5 -9 -10 -12 -13 3 30 46 59 88 117 78 57 68 94 120 105 84 90 107 101
-18 -6 38 62 106 142 119 72 16 -22 -43 -55 -62 -55 -51 -47 -39 -37 -39 -37 -20 -7 -7 8 19 26 23 18 26 31 38 40 44 58 69 86 113 114 126 144 102 81 75 75
88 100 106 107 112 109 93 69 18 -21 -9 -16 -31 -36 -44 -51 -37 -26 -24 -19 -16 -14 -3 16 21 32 52 77 84 71 65 61 58 58 56 58 55 55 64 52 50 55 70 90

GFSNGP_con_3kmhel_327.txt.gz
Helicity
175 211 176 187 90 79 65 94 92 172 106 270 349 254 152 86 23 27 64 114 156 167 144 141 151 147 153 194 219 193 160 155 146 175 145 156 148 140 141 127 113 115 131 113
215 114 101 174 212 102 154 158 143 147 212 280 277 256 252 249 79 48 58 73 105 127 126 141 123 134 151 151 174 164 152 155 175 183 168 154 148 145 141 127 126 130 120 117
175 265 158 245 236 181 197 202 184 224 205 339 406 355 315 337 305 276 219 90 75 76 92 110 86 142 121 130 145 131 141 149 157 182 162 148 147 147 134 128 132 111 114 115
139 283 233 191 237 180 216 258 304 332 431 397 358 300 301 295 311 337 300 269 169 111 87 95 83 60 80 121 132 122 113 129 165 168 142 155 153 135 131 128 120 108 110 107
141 212 199 310 366 427 463 365 419 372 394 388 229 175 323 446 432 361 310 252 211 199 103 111 111 89 89 88 150 141 144 165 168 175 167 173 160 153 138 142 118 105 106 128
326 97 136 448 438 345 446 433 529 508 482 550 375 274 204 438 359 344 330 359 312 255 187 152 133 159 155 123 129 99 169 188 201 182 171 175 161 162 149 127 116 112 110 119
404 287 303 401 498 310 341 388 500 464 467 488 426 342 468 372 219 235 164 237 307 262 157 125 174 145 135 148 136 151 184 182 155 176 190 202 199 175 164 141 130 120 118 129
396 413 256 451 457 360 361 239 365 415 439 457 436 460 488 416 384 269 221 200 331 111 78 125 167 185 165 139 147 177 224 204 201 208 207 226 214 173 159 171 164 149 141 142
225 276 188 228 344 227 207 189 265 309 358 399 443 461 483 478 387 408 338 175 179 184 -3 18 104 163 159 127 160 197 198 198 200 201 220 235 222 200 211 184 206 187 170 160
126 151 171 132 179 201 161 146 89 142 210 228 312 338 368 366 360 331 347 371 294 181 55 65 70 78 54 101 172 209 185 169 211 225 245 198 196 215 244 268 249 210 193 176
121 185 53 89 140 112 122 109 90 46 56 116 149 192 232 288 314 279 300 303 279 277 156 185 95 59 110 138 182 159 159 185 184 196 230 208 210 248 257 235 269 257 197 199
155 171 81 104 83 79 50 74 101 65 31 14 77 97 115 120 161 143 187 241 256 249 242 194 168 193 149 112 135 150 164 174 184 218 225 215 239 227 261 196 200 212 228 237
74 13 30 17 10 40 55 57 41 55 62 59 1 39 123 93 90 81 96 132 207 218 242 202 176 103 142 159 141 142 158 172 181 181 206 234 231 230 247 227 159 171 186 187
24 -16 -1 0 2 18 32 34 54 66 81 82 84 72 90 121 149 150 155 153 133 160 227 246 218 236 165 176 167 142 138 197 172 179 176 195 181 175 173 213 219 192 136 125
21 -11 -32 -19 -3 24 38 41 57 99 138 139 118 104 141 206 221 210 216 226 200 205 222 238 268 308 268 207 263 225 166 168 156 175 187 156 146 154 183 170 164 193 189 167
-62 -69 -61 -24 -19 26 75 108 121 119 96 110 120 113 121 148 191 228 257 268 305 263 270 251 269 274 264 273 266 216 207 201 193 160 171 149 139 148 156 170 147 151 168 174
-33 -16 -47 -45 -34 -5 42 61 88 100 88 68 60 39 76 66 81 141 175 211 239 293 307 333 349 320 258 232 213 237 71 75 105 148 150 135 146 135 125 141 141 128 123 190
-58 -57 -51 -50 -34 -16 10 30 35 25 67 71 17 24 71 106 115 133 135 104 143 246 344 338 355 371 339 327 315 271 299 199 216 199 258 189 120 167 170 152 129 118 122 156
-37 -55 -57 -51 -46 -44 -46 -33 -22 -16 -22 -8 52 59 49 56 123 113 98 79 119 196 306 329 377 371 402 450 380 303 250 236 210 253 267 272 232 170 162 163 142 119 135 163
-28 -34 -41 -45 -44 -35 -32 -36 -48 -45 -31 -19 -10 13 49 60 89 69 89 70 65 94 151 227 266 364 460 473 443 400 346 360 280 240 294 313 266 188 184 227 193 172 173 173
-17 -29 -28 -15 -28 -22 -24 -20 -20 -14 -2 -2 -10 -13 -8 4 -8 1 38 62 85 86 94 111 104 165 265 373 422 383 499 455 389 373 403 371 269 267 237 212 183 178 181 187
9 -1 -22 -18 -13 -12 -1 7 28 24 17 -7 -37 -45 -38 -19 -15 -19 -28 -2 0 15 21 45 67 73 94 187 242 323 277 280 362 377 371 321 174 180 210 177 164 151 144 159
-16 12 29 12 8 33 56 46 33 24 2 -17 -34 -42 -34 -33 -23 -2 4 2 -9 1 -9 -11 7 36 61 40 47 103 155 149 268 353 349 324 316 175 162 198 190 166 146 122
-6 -13 1 36 83 94 71 57 42 20 -10 -18 -30 -49 -51 -36 -23 -23 -13 -6 0 3 -3 -1 9 17 19 11 28 53 49 69 82 94 129 147 100 86 124 131 128 129 139 129
18 19 31 40 48 73 109 106 62 35 12 -14 -23 -36 -27 -31 -33 -19 -11 -2 2 8 14 12 20 24 15 26 19 13 25 44 38 51 64 55 97 121 99 104 120 123 105 74
38 50 79 99 100 100 95 75 54 30 -6 -8 1 -3 -10 -17 -22 -24 -16 -8 0 6 8 15 24 32 38 49 54 55 58 55 51 54 53 57 68 70 66 74 77 70 73 97
75 78 87 100 113 116 104 79 50 22 12 46 21 13 8 1 -4 -10 -7 -7 -6 3 14 20 24 36 41 45 53 69 83 85 79 69 66 73 69 60 77 80 65 58 60 66

GFSNGP_con_3kmhel_330.txt.gz
Helicity
240 214 186 37 67 83 57 73 119 94 75 103 115 143 123 77 57 70 45 44 58 74 80 98 127 182 147 100 160 156 148 140 126 132 125 120 145 149 140 133 141 132 126 128
117 94 114 174 205 48 63 82 48 72 82 134 143 112 119 225 53 61 75 29 44 49 15 68 130 164 170 159 162 169 149 143 138 135 130 142 165 178 161 153 160 152 134 127
103 102 55 200 332 206 197 192 139 118 153 193 206 164 178 212 213 257 263 65 48 41 42 42 76 136 131 111 142 139 143 126 138 132 152 156 184 179 166 162 168 152 136 122
204 205 160 188 257 260 179 269 211 196 229 221 167 157 262 292 274 235 255 311 228 106 101 65 60 77 58 54 79 86 98 120 131 132 151 168 185 170 160 162 153 146 133 111
271 115 237 352 304 351 350 234 323 302 309 409 292 226 160 304 332 324 285 206 195 228 196 107 104 79 71 78 59 58 85 112 124 138 155 184 176 153 150 149 143 140 127 115
217 435 385 329 389 279 306 256 432 448 405 334 275 145 233 340 277 265 251 216 173 154 190 112 120 89 74 78 74 59 91 67 78 114 157 152 144 163 151 131 128 126 126 100
232 403 367 524 414 222 238 266 385 434 508 451 352 309 373 295 247 213 231 229 221 156 181 121 118 134 105 78 54 92 97 95 95 121 136 119 147 148 150 143 135 134 131 112
492 341 391 555 428 304 349 274 273 309 410 323 337 312 294 222 196 160 188 206 171 132 183 135 111 91 145 86 72 74 116 119 126 135 161 158 160 167 154 159 153 148 145 139
517 229 -12 242 338 287 199 190 253 279 299 335 392 357 407 371 303 175 148 178 150 122 69 62 72 70 87 92 65 75 111 113 133 146 151 195 181 174 193 174 163 168 170 165
158 131 41 195 235 185 128 165 209 221 237 259 312 352 338 340 391 404 379 351 215 111 87 34 110 86 2 55 65 55 66 102 116 139 167 174 186 180 204 223 203 176 183 183
7 94 24 120 164 138 92 66 116 151 177 190 211 260 263 287 323 335 326 384 368 262 271 47 100 51 29 12 41 61 82 97 99 131 172 184 171 200 192 159 217 238 208 189
42 6 -9 6 15 45 63 73 44 113 170 155 173 180 191 230 206 225 260 232 253 291 436 388 176 50 61 52 25 44 86 103 103 118 176 183 169 204 259 184 148 166 186 178
-17 -50 -50 -48 -6 16 32 52 47 47 68 79 126 112 108 117 172 186 203 196 234 254 230 282 490 569 378 115 42 33 61 101 123 129 133 155 165 169 172 223 209 156 188 197
-14 -32 -15 -21 -13 21 31 32 40 40 31 19 52 108 105 95 123 151 181 187 181 193 206 222 228 274 403 565 310 175 150 210 153 120 104 110 132 134 140 146 170 166 181 169
-67 -62 -63 -47 -20 11 28 34 34 62 107 129 117 110 108 126 164 147 140 138 148 193 233 239 220 247 268 327 420 271 223 263 212 151 137 141 146 154 145 139 126 139 168 210
-63 -64 -42 -23 -18 -1 14 23 47 62 61 85 98 121 137 108 99 111 128 129 144 212 254 249 242 249 230 229 220 176 141 248 197 158 155 157 177 191 179 145 130 146 153 157
-44 -27 -33 -25 -20 -6 4 -15 -24 10 37 55 73 89 100 115 109 117 115 100 72 75 188 250 273 223 224 239 245 232 234 205 206 183 126 114 137 182 200 161 138 134 132 164
-61 -68 -70 -56 -42 -29 -10 -9 -18 -20 -14 8 30 64 93 101 127 119 103 110 98 106 105 135 197 235 207 263 262 205 233 271 352 342 234 155 212 230 205 138 131 118 126 156
-29 -36 -39 -42 -43 -41 -40 -30 -23 -18 -6 2 14 49 53 50 59 81 82 60 80 125 163 104 137 143 202 240 296 231 185 224 207 219 198 200 320 340 277 128 201 220 197 214
-2 -9 -23 -33 -28 -28 -31 -24 -25 -17 -13 -10 1 14 25 31 40 45 52 51 66 71 102 109 95 108 152 181 218 213 240 237 230 222 227 251 174 129 170 196 226 302 274 217
13 29 16 4 -13 -12 -13 -4 -21 -10 -1 2 -5 -13 -17 -5 1 2 29 35 35 36 64 68 75 93 86 141 141 184 212 249 288 270 253 251 228 203 228 254 302 323 265 212
-8 -12 -9 27 39 21 34 23 32 26 19 -4 -28 -45 -39 -10 -8 -9 -7 5 7 2 15 19 48 95 79 115 93 110 168 207 260 267 287 329 353 403 350 392 369 292 336 238
3 -4 7 0 15 49 94 102 81 46 -2 -23 -25 -18 -13 -12 -14 -7 8 9 3 22 13 11 24 38 63 34 47 56 66 110 126 229 273 292 339 345 313 465 449 384 257 280
-5 -1 9 26 36 52 73 94 105 73 3 -20 -27 -32 -13 -11 -6 -10 -7 -6 1 9 6 13 23 39 35 8 12 23 27 38 47 74 73 103 187 326 297 272 239 199 188 213
15 16 22 39 50 73 93 87 72 64 56 23 2 1 6 1 -2 3 0 7 9 9 16 15 20 29 23 29 24 30 23 14 17 25 24 42 51 48 27 93 96 69 59 57
37 47 68 69 81 93 97 91 93 81 45 8 8 45 28 15 7 -2 -3 -1 9 19 20 25 26 27 29 38 42 43 48 53 56 38 25 25 25 28 37 50 48 31 23 18
45 73 75 80 91 95 88 88 84 87 79 58 45 54 54 48 44 26 23 20 13 10 13 21 30 42 50 54 55 57 54 57 67 81 77 71 66 41 39 48 57 56 57 61

GFSNGP_con_3kmhel_333.txt.gz
Helicity
164 187 207 38 22 20 36 24 57 160 274 155 220 197 302 137 73 47 45 81 126 64 129 137 161 152 159 190 208 207 143 133 164 162 146 127 114 121 129 136 127 138 161 161
91 241 101 276 342 286 191 178 76 63 156 86 148 203 364 341 153 47 44 77 75 78 97 119 127 156 187 201 217 238 178 157 168 180 175 160 143 138 154 149 147 154 163 165
125 77 73 250 491 188 272 257 167 111 158 111 54 157 318 454 403 372 328 247 107 133 105 98 126 156 181 219 246 262 236 176 179 198 197 176 138 137 160 172 180 169 167 156
88 373 156 244 293 274 110 245 353 104 228 216 29 81 203 335 443 382 369 439 300 168 33 57 71 125 159 207 276 276 221 187 210 212 198 196 166 141 178 189 196 180 170 148
192 307 260 299 391 296 287 149 272 213 270 333 152 135 108 294 301 325 362 380 333 320 243 95 55 71 169 210 209 229 197 166 219 212 167 192 198 205 198 213 213 188 154 148
175 378 340 384 378 217 181 166 284 275 233 307 325 193 265 322 280 303 250 228 307 308 334 256 69 120 129 143 157 161 160 125 157 155 159 144 170 188 199 182 163 135 131 132
296 293 293 425 407 205 198 213 336 231 242 250 298 224 189 176 207 276 266 247 217 192 207 165 175 141 163 129 100 77 74 78 121 113 87 137 158 172 189 151 143 136 129 130
384 426 468 437 425 214 248 168 209 210 286 292 189 304 305 285 194 181 222 180 247 208 154 169 83 137 182 187 141 111 72 79 93 68 74 132 161 168 137 155 170 160 159 155
312 275 99 139 287 176 139 132 212 224 277 307 250 224 201 188 158 150 143 124 200 158 76 83 112 57 137 192 195 213 196 138 102 82 86 118 178 200 182 161 183 182 178 178
125 41 177 183 183 208 160 180 186 190 229 243 220 239 195 205 215 178 204 208 295 268 86 50 80 91 102 128 62 89 114 142 153 130 145 146 176 211 202 211 211 214 193 193
49 95 91 115 112 134 133 116 154 141 162 202 244 312 287 274 277 251 285 347 370 485 370 207 111 99 68 38 32 117 151 158 93 122 137 164 155 192 230 205 215 237 212 199
58 29 6 73 44 44 66 74 83 136 159 202 236 284 308 311 304 292 313 326 354 402 397 490 396 301 323 287 86 108 126 53 62 112 167 173 160 191 336 239 188 203 171 163
-41 -42 -40 -30 -15 3 12 21 21 25 87 109 124 148 183 217 239 240 256 304 279 282 280 262 307 391 339 350 326 260 113 59 124 123 148 138 180 209 294 344 339 214 180 160
-41 -43 -20 -23 -43 -33 -12 -13 -29 -10 17 48 95 93 104 141 160 188 191 199 200 191 186 195 191 274 318 303 361 288 201 67 75 96 127 152 173 192 261 254 278 214 213 192
-83 -71 -91 -60 -31 -23 -20 -9 23 9 15 40 66 114 112 106 151 142 139 139 122 127 169 180 166 222 298 325 333 370 332 178 108 134 154 127 134 151 201 170 163 182 206 234
-46 -49 -45 -43 -41 -28 -18 8 22 35 41 36 43 55 72 82 61 84 109 135 149 161 151 150 185 229 207 225 261 290 383 336 239 246 183 165 167 189 196 203 185 188 210 221
-38 -26 -28 -32 -35 -34 -34 -38 -23 2 15 35 56 70 66 70 75 63 46 65 104 152 157 146 159 166 165 179 202 204 217 223 214 157 198 168 176 191 163 161 168 185 180 202
-30 -26 -31 -32 -30 -30 -30 -28 -32 -28 -7 8 18 30 41 68 87 84 63 43 37 61 117 113 126 111 125 174 161 151 165 180 200 176 151 169 160 156 134 147 143 218 178 280
-17 -14 -15 -25 -28 -34 -29 -23 -21 -26 -24 -25 -13 6 14 18 30 30 34 21 40 58 84 74 93 78 101 117 153 132 144 165 178 195 227 222 167 214 270 292 206 217 246 324
1 9 5 6 -11 -10 -21 -22 -18 -18 -7 -11 -20 -11 -14 -9 9 13 19 20 26 25 43 42 48 64 68 99 120 50 53 116 164 170 198 222 224 241 209 208 194 207 186 208
3 1 -2 11 29 29 10 8 -13 -17 -13 6 -10 -33 -49 -37 -3 -14 11 12 23 19 27 6 18 47 57 64 50 57 53 50 72 117 111 153 206 221 229 251 272 269 249 234
-11 -6 1 -0 21 33 93 45 61 42 29 6 -38 -59 -64 -21 -9 -11 -9 6 -3 4 16 4 14 23 36 59 32 46 59 62 55 64 54 59 108 154 215 274 265 274 271 251
-1 -7 -0 -1 1 11 56 110 115 98 39 -7 -38 -12 -18 -15 -9 -6 -0 12 3 10 5 14 8 17 45 7 15 41 71 70 57 76 81 82 91 87 145 183 255 240 267 318
21 21 22 33 21 24 27 96 79 68 68 34 14 2 3 2 14 10 15 4 -17 1 3 1 11 35 50 20 24 29 29 38 45 42 49 62 77 75 102 139 144 168 216 219
22 23 30 35 42 49 74 85 57 62 59 32 32 53 37 22 9 12 4 12 6 6 11 5 20 33 21 27 35 35 38 36 38 36 30 24 32 38 47 53 79 104 89 94
52 41 21 39 52 58 80 87 59 69 68 66 74 86 62 37 35 32 28 22 26 26 22 8 2 10 21 34 45 45 43 44 44 49 51 48 42 33 31 29 24 36 34 31
80 100 44 46 74 90 87 72 64 83 82 82 71 77 54 47 48 35 37 33 24 18 15 15 19 24 28 40 48 60 58 57 59 57 50 49 55 53 47 42 43 40 29 21